Tracking 31027 objects as of 19-Jul-2025
HD Live streaming from Space Station
objects crossing your sky now

BREEZE-M DEB

Track BREEZE-M DEB now!


NORAD ID: 38577
Int'l Code: 2008-011Y
Perigee: 536.7 km
Apogee: 27,370.0 km
Inclination: 48.8 °
Period: 480.6 minutes
Semi major axis: 20324 km
RCS: 0.113 m2 (medium)
Launch date: March 14, 2008
Source: Commonwealth of Independent States (former USSR) (CIS)
Launch site: TYURATAM MISSILE AND SPACE COMPLEX (TTMTR)

Note: This is SATELLITE DEBRIS
Your satellite tracking list
ONEWEB-0142
Track 1 satellite(s)




NASA's NSSDC Master Catalog

Two Line Element Set (TLE):
1 38577U 08011Y   25196.71826588 -.00000585  00000-0 -34932-2 0  9991
2 38577  48.8309 111.8573 6601283 128.1802 353.6988  2.99625813159077
Source of the keplerian elements: AFSPC